Time,TemperatureF,DewpointF,PressureIn,WindDirection,WindDirectionDegrees,WindSpeedMPH,WindSpeedGustMPH,Humidity,HourlyPrecipIn,Conditions,Clouds,dailyrainin,SolarRadiationWatts/m^2,SoftwareType,DateUTC
2013-08-10 00:01:00,46.0,45.0,-100.00,West,265,2.0,3.0,98,0.00,,,0.00,0.000000,,2013-08-10 05:01:00,
2013-08-10 00:22:00,46.0,45.0,-100.00,West,265,2.0,3.0,98,0.00,,,0.00,0.000000,,2013-08-10 05:22:00,
2013-08-10 00:32:00,46.0,45.0,-100.00,West,265,2.0,3.0,98,0.00,,,0.00,0.000000,,2013-08-10 05:32:00,
2013-08-10 00:43:00,46.0,45.0,-100.00,West,265,2.0,3.0,98,0.00,,,0.00,0.000000,,2013-08-10 05:43:00,
2013-08-10 00:52:00,46.0,45.0,-100.00,West,265,2.0,3.0,98,0.00,,,0.00,0.000000,,2013-08-10 05:52:00,
2013-08-10 01:01:00,45.0,44.0,-100.00,West,273,2.0,2.0,98,0.00,,,0.00,0.000000,,2013-08-10 06:01:00,
2013-08-10 01:22:00,45.0,44.0,-100.00,West,273,2.0,2.0,98,0.00,,,0.00,0.000000,,2013-08-10 06:22:00,
2013-08-10 01:32:00,45.0,44.0,-100.00,West,273,2.0,2.0,98,0.00,,,0.00,0.000000,,2013-08-10 06:32:00,
2013-08-10 01:44:00,45.0,44.0,-100.00,West,273,2.0,2.0,98,0.00,,,0.00,0.000000,,2013-08-10 06:44:00,
2013-08-10 01:53:00,45.0,44.0,-100.00,West,273,2.0,2.0,98,0.00,,,0.00,0.000000,,2013-08-10 06:53:00,
2013-08-10 02:01:00,44.0,43.0,-100.00,WNW,282,0.0,3.0,98,0.00,,,0.00,0.000000,,2013-08-10 07:01:00,
2013-08-10 02:22:00,44.0,43.0,-100.00,WNW,282,0.0,3.0,98,0.00,,,0.00,0.000000,,2013-08-10 07:22:00,
2013-08-10 02:33:00,44.0,43.0,-100.00,WNW,282,0.0,3.0,98,0.00,,,0.00,0.000000,,2013-08-10 07:33:00,
2013-08-10 02:43:00,44.0,43.0,-100.00,WNW,282,0.0,3.0,98,0.00,,,0.00,0.000000,,2013-08-10 07:43:00,
2013-08-10 02:52:00,44.0,43.0,-100.00,WNW,282,0.0,3.0,98,0.00,,,0.00,0.000000,,2013-08-10 07:52:00,
2013-08-10 03:01:00,43.0,42.0,-100.00,WNW,285,0.0,2.0,98,0.00,,,0.00,0.000000,,2013-08-10 08:01:00,
2013-08-10 03:22:00,43.0,42.0,-100.00,WNW,285,0.0,2.0,98,0.00,,,0.00,0.000000,,2013-08-10 08:22:00,
2013-08-10 03:32:00,43.0,42.0,-100.00,WNW,285,0.0,2.0,98,0.00,,,0.00,0.000000,,2013-08-10 08:32:00,
2013-08-10 03:43:00,43.0,42.0,-100.00,WNW,285,0.0,2.0,98,0.00,,,0.00,0.000000,,2013-08-10 08:43:00,
2013-08-10 03:53:00,43.0,42.0,-100.00,WNW,285,0.0,2.0,98,0.00,,,0.00,0.000000,,2013-08-10 08:53:00,
2013-08-10 04:01:00,42.0,42.0,-100.00,SSE,154,0.0,2.0,99,0.00,,,0.00,0.000000,,2013-08-10 09:01:00,
2013-08-10 04:22:00,42.0,42.0,-100.00,SSE,154,0.0,2.0,99,0.00,,,0.00,0.000000,,2013-08-10 09:22:00,
2013-08-10 04:32:00,42.0,42.0,-100.00,SSE,154,0.0,2.0,99,0.00,,,0.00,0.000000,,2013-08-10 09:32:00,
2013-08-10 04:43:00,42.0,42.0,-100.00,SSE,154,0.0,2.0,99,0.00,,,0.00,0.000000,,2013-08-10 09:43:00,
2013-08-10 04:52:00,42.0,42.0,-100.00,SSE,154,0.0,2.0,99,0.00,,,0.00,0.000000,,2013-08-10 09:52:00,
2013-08-10 05:01:00,41.0,41.0,-100.00,West,272,0.0,2.0,99,0.00,,,0.00,0.000000,,2013-08-10 10:01:00,
2013-08-10 05:22:00,41.0,41.0,-100.00,West,272,0.0,2.0,99,0.00,,,0.00,0.000000,,2013-08-10 10:22:00,
2013-08-10 05:33:00,41.0,41.0,-100.00,West,272,0.0,2.0,99,0.00,,,0.00,0.000000,,2013-08-10 10:33:00,
2013-08-10 05:44:00,41.0,41.0,-100.00,West,272,0.0,2.0,99,0.00,,,0.00,0.000000,,2013-08-10 10:44:00,
2013-08-10 05:53:00,41.0,41.0,-100.00,West,272,0.0,2.0,99,0.00,,,0.00,0.000000,,2013-08-10 10:53:00,
2013-08-10 09:01:00,62.0,55.0,-100.00,NW,309,4.0,6.0,78,-99.99,,,0.00,454.000000,,2013-08-10 14:01:00,
2013-08-10 09:22:00,62.0,55.0,-100.00,NW,309,4.0,6.0,78,-99.99,,,0.00,454.000000,,2013-08-10 14:22:00,
2013-08-10 09:33:00,62.0,55.0,-100.00,NW,309,4.0,6.0,78,-99.99,,,0.00,454.000000,,2013-08-10 14:33:00,
2013-08-10 09:43:00,62.0,55.0,-100.00,NW,309,4.0,6.0,78,-99.99,,,0.00,454.000000,,2013-08-10 14:43:00,
2013-08-10 09:53:00,62.0,55.0,-100.00,NW,309,4.0,6.0,78,-99.99,,,0.00,454.000000,,2013-08-10 14:53:00,
2013-08-10 10:01:00,65.0,55.0,-100.00,NW,325,3.0,7.0,69,0.00,,,0.00,568.000000,,2013-08-10 15:01:00,
2013-08-10 10:22:00,65.0,55.0,-100.00,NW,325,3.0,7.0,69,0.00,,,0.00,568.000000,,2013-08-10 15:22:00,
2013-08-10 10:34:00,65.0,55.0,-100.00,NW,325,3.0,7.0,69,0.00,,,0.00,568.000000,,2013-08-10 15:34:00,
2013-08-10 10:43:00,65.0,55.0,-100.00,NW,325,3.0,7.0,69,0.00,,,0.00,568.000000,,2013-08-10 15:43:00,
2013-08-10 10:52:00,65.0,55.0,-100.00,NW,325,3.0,7.0,69,0.00,,,0.00,568.000000,,2013-08-10 15:52:00,
2013-08-10 11:01:00,67.0,54.0,-100.00,NW,311,4.0,9.0,62,0.00,,,0.00,582.000000,,2013-08-10 16:01:00,
2013-08-10 11:22:00,67.0,54.0,-100.00,NW,311,4.0,9.0,62,0.00,,,0.00,582.000000,,2013-08-10 16:22:00,
2013-08-10 11:32:00,67.0,54.0,-100.00,NW,311,4.0,9.0,62,0.00,,,0.00,582.000000,,2013-08-10 16:32:00,
2013-08-10 11:43:00,67.0,54.0,-100.00,NW,311,4.0,9.0,62,0.00,,,0.00,582.000000,,2013-08-10 16:43:00,
2013-08-10 11:53:00,67.0,54.0,-100.00,NW,311,4.0,9.0,62,0.00,,,0.00,582.000000,,2013-08-10 16:53:00,
2013-08-10 12:01:00,67.0,53.0,-100.00,NNW,340,4.0,10.0,60,0.00,,,0.00,505.000000,,2013-08-10 17:01:00,
2013-08-10 12:22:00,67.0,53.0,-100.00,NNW,340,4.0,10.0,60,0.00,,,0.00,505.000000,,2013-08-10 17:22:00,
2013-08-10 12:33:00,67.0,53.0,-100.00,NNW,340,4.0,10.0,60,0.00,,,0.00,505.000000,,2013-08-10 17:33:00,
2013-08-10 12:43:00,67.0,53.0,-100.00,NNW,340,4.0,10.0,60,0.00,,,0.00,505.000000,,2013-08-10 17:43:00,
2013-08-10 12:52:00,67.0,53.0,-100.00,NNW,340,4.0,10.0,60,0.00,,,0.00,505.000000,,2013-08-10 17:52:00,
2013-08-10 13:01:00,68.0,52.0,-100.00,NW,324,3.0,12.0,57,0.00,,,0.00,612.000000,,2013-08-10 18:01:00,
2013-08-10 13:23:00,68.0,52.0,-100.00,NW,324,3.0,12.0,57,0.00,,,0.00,612.000000,,2013-08-10 18:23:00,
2013-08-10 13:32:00,68.0,52.0,-100.00,NW,324,3.0,12.0,57,0.00,,,0.00,612.000000,,2013-08-10 18:32:00,
2013-08-10 13:44:00,68.0,52.0,-100.00,NW,324,3.0,12.0,57,0.00,,,0.00,612.000000,,2013-08-10 18:44:00,
2013-08-10 13:52:00,68.0,52.0,-100.00,NW,324,3.0,12.0,57,0.00,,,0.00,612.000000,,2013-08-10 18:52:00,
2013-08-10 14:01:00,69.0,52.0,-100.00,NNW,331,6.0,10.0,54,0.00,,,0.00,556.000000,,2013-08-10 19:01:00,
2013-08-10 14:22:00,69.0,52.0,-100.00,NNW,331,6.0,10.0,54,0.00,,,0.00,556.000000,,2013-08-10 19:22:00,
2013-08-10 14:33:00,69.0,52.0,-100.00,NNW,331,6.0,10.0,54,0.00,,,0.00,556.000000,,2013-08-10 19:33:00,
2013-08-10 14:44:00,69.0,52.0,-100.00,NNW,331,6.0,10.0,54,0.00,,,0.00,556.000000,,2013-08-10 19:44:00,
2013-08-10 14:53:00,69.0,52.0,-100.00,NNW,331,6.0,10.0,54,0.00,,,0.00,556.000000,,2013-08-10 19:53:00,
2013-08-10 15:01:00,71.0,50.0,-100.00,NNW,338,7.0,12.0,47,0.00,,,0.00,673.000000,,2013-08-10 20:01:00,
2013-08-10 15:22:00,71.0,50.0,-100.00,NNW,338,7.0,12.0,47,0.00,,,0.00,673.000000,,2013-08-10 20:22:00,
2013-08-10 15:33:00,71.0,50.0,-100.00,NNW,338,7.0,12.0,47,0.00,,,0.00,673.000000,,2013-08-10 20:33:00,
2013-08-10 15:43:00,71.0,50.0,-100.00,NNW,338,7.0,12.0,47,0.00,,,0.00,673.000000,,2013-08-10 20:43:00,
2013-08-10 15:53:00,71.0,50.0,-100.00,NNW,338,7.0,12.0,47,0.00,,,0.00,673.000000,,2013-08-10 20:53:00,
2013-08-10 16:01:00,71.0,50.0,-100.00,NW,323,7.0,15.0,48,0.00,,,0.00,771.000000,,2013-08-10 21:01:00,
2013-08-10 16:22:00,71.0,50.0,-100.00,NW,323,7.0,15.0,48,0.00,,,0.00,771.000000,,2013-08-10 21:22:00,
2013-08-10 16:32:00,71.0,50.0,-100.00,NW,323,7.0,15.0,48,0.00,,,0.00,771.000000,,2013-08-10 21:32:00,
2013-08-10 16:42:00,71.0,50.0,-100.00,NW,323,7.0,15.0,48,0.00,,,0.00,771.000000,,2013-08-10 21:42:00,
2013-08-10 16:52:00,71.0,50.0,-100.00,NW,323,7.0,15.0,48,0.00,,,0.00,771.000000,,2013-08-10 21:52:00,
2013-08-10 17:01:00,71.0,51.0,-100.00,NW,306,5.0,11.0,49,0.00,,,0.00,662.000000,,2013-08-10 22:01:00,
2013-08-10 17:21:00,71.0,51.0,-100.00,NW,306,5.0,11.0,49,0.00,,,0.00,662.000000,,2013-08-10 22:21:00,
2013-08-10 17:32:00,71.0,51.0,-100.00,NW,306,5.0,11.0,49,0.00,,,0.00,662.000000,,2013-08-10 22:32:00,
2013-08-10 17:43:00,71.0,51.0,-100.00,NW,306,5.0,11.0,49,0.00,,,0.00,662.000000,,2013-08-10 22:43:00,
2013-08-10 17:52:00,71.0,51.0,-100.00,NW,306,5.0,11.0,49,0.00,,,0.00,662.000000,,2013-08-10 22:52:00,
2013-08-10 18:01:00,71.0,52.0,-100.00,WNW,286,4.0,11.0,51,0.00,,,0.00,436.000000,,2013-08-10 23:01:00,
2013-08-10 18:22:00,71.0,52.0,-100.00,WNW,286,4.0,11.0,51,0.00,,,0.00,436.000000,,2013-08-10 23:22:00,
2013-08-10 18:33:00,71.0,52.0,-100.00,WNW,286,4.0,11.0,51,0.00,,,0.00,436.000000,,2013-08-10 23:33:00,
2013-08-10 18:43:00,71.0,52.0,-100.00,WNW,286,4.0,11.0,51,0.00,,,0.00,436.000000,,2013-08-10 23:43:00,
2013-08-10 18:53:00,71.0,52.0,-100.00,WNW,286,4.0,11.0,51,0.00,,,0.00,436.000000,,2013-08-10 23:53:00,
2013-08-10 19:01:00,70.0,52.0,-100.00,WNW,294,3.0,8.0,53,0.00,,,0.00,283.000000,,2013-08-11 00:01:00,
2013-08-10 19:22:00,70.0,52.0,-100.00,WNW,294,3.0,8.0,53,0.00,,,0.00,283.000000,,2013-08-11 00:22:00,
2013-08-10 19:32:00,70.0,52.0,-100.00,WNW,294,3.0,8.0,53,0.00,,,0.00,283.000000,,2013-08-11 00:32:00,
2013-08-10 19:42:00,70.0,52.0,-100.00,WNW,294,3.0,8.0,53,0.00,,,0.00,283.000000,,2013-08-11 00:42:00,
2013-08-10 19:52:00,70.0,52.0,-100.00,WNW,294,3.0,8.0,53,0.00,,,0.00,283.000000,,2013-08-11 00:52:00,
2013-08-10 20:01:00,62.0,56.0,-100.00,SSW,200,0.0,4.0,80,0.00,,,0.00,106.000000,,2013-08-11 01:01:00,
2013-08-10 20:22:00,62.0,56.0,-100.00,SSW,200,0.0,4.0,80,0.00,,,0.00,106.000000,,2013-08-11 01:22:00,
2013-08-10 20:32:00,62.0,56.0,-100.00,SSW,200,0.0,4.0,80,0.00,,,0.00,106.000000,,2013-08-11 01:32:00,
2013-08-10 20:43:00,62.0,56.0,-100.00,SSW,200,0.0,4.0,80,0.00,,,0.00,106.000000,,2013-08-11 01:43:00,
2013-08-10 20:54:00,62.0,56.0,-100.00,SSW,200,0.0,4.0,80,0.00,,,0.00,106.000000,,2013-08-11 01:54:00,
2013-08-10 21:01:00,52.0,51.0,-100.00,WNW,282,0.0,0.0,95,0.00,,,0.00,4.000000,,2013-08-11 02:01:00,
2013-08-10 21:32:00,52.0,51.0,-100.00,WNW,282,0.0,0.0,95,0.00,,,0.00,4.000000,,2013-08-11 02:32:00,
2013-08-10 21:43:00,52.0,51.0,-100.00,WNW,282,0.0,0.0,95,0.00,,,0.00,4.000000,,2013-08-11 02:43:00,
2013-08-10 21:57:00,52.0,51.0,-100.00,WNW,282,0.0,0.0,95,0.00,,,0.00,4.000000,,2013-08-11 02:57:00,
2013-08-10 22:01:00,49.0,48.0,-100.00,West,263,0.0,0.0,97,0.00,,,0.00,0.000000,,2013-08-11 03:01:00,
2013-08-10 22:36:00,49.0,48.0,-100.00,West,263,0.0,0.0,97,0.00,,,0.00,0.000000,,2013-08-11 03:36:00,
2013-08-10 22:46:00,49.0,48.0,-100.00,West,263,0.0,0.0,97,0.00,,,0.00,0.000000,,2013-08-11 03:46:00,
2013-08-10 22:56:00,49.0,48.0,-100.00,West,263,0.0,0.0,97,0.00,,,0.00,0.000000,,2013-08-11 03:56:00,
2013-08-10 23:01:00,47.0,46.0,-100.00,West,263,0.0,2.0,97,0.00,,,0.00,0.000000,,2013-08-11 04:01:00,
2013-08-10 23:22:00,47.0,46.0,-100.00,West,263,0.0,2.0,97,0.00,,,0.00,0.000000,,2013-08-11 04:22:00,
2013-08-10 23:32:00,47.0,46.0,-100.00,West,263,0.0,2.0,97,0.00,,,0.00,0.000000,,2013-08-11 04:32:00,
2013-08-10 23:43:00,47.0,46.0,-100.00,West,263,0.0,2.0,97,0.00,,,0.00,0.000000,,2013-08-11 04:43:00,
2013-08-10 23:53:00,47.0,46.0,-100.00,West,263,0.0,2.0,97,0.00,,,0.00,0.000000,,2013-08-11 04:53:00,